Location: C.E.K. Mees Observatory
(42.7003°N, 77.4088°W)
Time: 19:38:01
(UTC-05:00)

N. Korean satellite - Pass Details

Date: 14 October 2017
Orbit: 461 x 513 km, 97.2° (Epoch: 16 December)

Event Time Altitude Azimuth Distance (km) Brightness Sun altitude
Rises 19:25:05 0° 176° (S) 2,544 10.2 -11.2°
Reaches altitude 10° 19:27:11 10° 181° (S) 1,659 9.3 -11.6°
Maximum altitude 19:30:41 54° 260° (W) 584 7.4 -12.2°
Drops below altitude 10° 19:34:09 10° 339° (NNW) 1,645 9.5 -12.8°
Sets 19:36:14 0° 344° (NNW) 2,520 10.4 -13.2°
